TimeAST,TemperatureF,Dew PointF,Humidity,Sea Level PressureIn,VisibilityMPH,Wind Direction,Wind SpeedMPH,Gust SpeedMPH,PrecipitationIn,Events,Conditions,WindDirDegrees,DateUTC
12:55 AM,79.9,70.7,73,29.83,6.2,WNW,6.9,-,N/A,,Clear,290,2012-10-02 21:55:00
1:55 AM,79.0,69.4,72,29.83,6.2,WNW,5.8,-,N/A,,Clear,300,2012-10-02 22:55:00
2:55 AM,78.8,67.6,68,29.83,6.2,WNW,6.9,-,N/A,,Clear,290,2012-10-02 23:55:00
3:55 AM,77.4,68.7,75,29.83,6.2,NW,6.9,-,N/A,,Clear,320,2012-10-03 00:55:00
4:55 AM,76.1,69.1,79,29.84,6.2,NW,5.8,-,N/A,,Clear,310,2012-10-03 01:55:00
5:55 AM,76.1,70.3,82,29.85,6.2,WNW,3.5,-,N/A,,Clear,300,2012-10-03 02:55:00
6:55 AM,80.2,73.4,80,29.86,6.2,WNW,4.6,-,N/A,,Clear,300,2012-10-03 03:55:00
7:55 AM,88.0,73.9,63,29.87,6.2,WNW,8.1,-,N/A,,Clear,300,2012-10-03 04:55:00
8:55 AM,95.5,61.7,32,29.87,6.2,WNW,9.2,-,N/A,,Clear,290,2012-10-03 05:55:00
9:55 AM,100.9,58.8,25,29.87,6.2,WNW,11.5,-,N/A,,Clear,300,2012-10-03 06:55:00
10:55 AM,102.9,47.1,15,29.85,6.2,NW,11.5,-,N/A,,Clear,310,2012-10-03 07:55:00
11:55 AM,103.8,49.6,16,29.82,6.2,NW,10.4,-,N/A,,Clear,310,2012-10-03 08:55:00
12:55 PM,103.8,50.0,16,29.79,6.2,North,13.8,-,N/A,,Clear,350,2012-10-03 09:55:00
1:55 PM,103.3,52.3,18,29.78,6.2,NW,8.1,-,N/A,,Partly Cloudy,310,2012-10-03 10:55:00
2:55 PM,102.0,70.9,37,29.77,6.2,NE,13.8,27.6,N/A,,Clear,50,2012-10-03 11:55:00
3:03 PM,100.4,73.4,42,29.77,6.2,NNE,13.8,-,N/A,,Clear,30,2012-10-03 12:03:00
3:55 PM,97.0,74.8,49,29.78,6.2,NE,12.7,-,N/A,,Scattered Clouds,40,2012-10-03 12:55:00
4:55 PM,95.0,74.8,52,29.78,6.2,NNE,9.2,-,N/A,,Partly Cloudy,20,2012-10-03 13:55:00
5:55 PM,92.7,75.7,58,29.79,6.2,NE,9.2,-,N/A,,Clear,40,2012-10-03 14:55:00
6:55 PM,91.6,75.6,59,29.81,6.2,NE,5.8,-,N/A,,Clear,50,2012-10-03 15:55:00
7:55 PM,90.0,76.1,64,29.81,6.2,NNE,3.5,-,N/A,,Clear,20,2012-10-03 16:55:00
8:55 PM,88.5,77.0,69,29.82,6.2,NNE,3.5,-,N/A,,Clear,20,2012-10-03 17:55:00
9:55 PM,87.1,77.5,73,29.81,6.2,North,3.5,-,N/A,,Clear,360,2012-10-03 18:55:00
10:55 PM,82.9,75.7,79,29.79,6.2,NNW,4.6,-,N/A,,Clear,340,2012-10-03 19:55:00
11:55 PM,81.3,75.0,81,29.78,6.2,NW,5.8,-,N/A,,Clear,310,2012-10-03 20:55:00